Regional Weather Roundup
Issued by NWS

Home | Current Version | Previous Version | Graphics & Text | Print | Product List | Glossary On
Versions: 1 2 3 4 5 6 7 8 9 10 11 12 13 14 15 16 17 18 19 20 21 22 23 24 25 26 27 28 29 30 31 32 33 34 35 36 37 38 39 40 41 42 43 44 45 46 47 48 49 50
000
ASUS45 KCYS 272010
RWRWY

WYOMING REGIONAL WEATHER ROUNDUP
NATIONAL WEATHER SERVICE CHEYENNE WY
200 PM MDT SUN JUL 27 2014

NOTE:  "FAIR" INDICATES FEW OR NO CLOUDS BELOW 12,000 FEET
WITH NO SIGNIFICANT WEATHER AND/OR OBSTRUCTIONS TO VISIBILITY.

WYZ001-272100-
YELLOWSTONE NATIONAL PARK

CITY           SKY/WX    TMP DP  RH WIND       PRES   REMARKS
LK YELLOWSTONE   N/A     73  46  38 VRB3      30.50F
W YELLOWSTONE  NOT AVBL

$$
WYZ002>013-054>058-071-098>099-272100-
NORTHERN WYOMING

CITY           SKY/WX    TMP DP  RH WIND       PRES   REMARKS
JACKSON        NOT AVBL
CODY           NOT AVBL
GREYBULL       SUNNY     86  33  15 VRB3      30.26F
WORLAND        SUNNY     84  32  15 VRB3      30.27F
SHERIDAN       SUNNY     84  40  21 E7        30.30F
BUFFALO        SUNNY     81  36  19 SE8       30.37F
GILLETTE       SUNNY     82  39  21 VRB5      30.33F
HULETT         FAIR      75  43  31 MISG      30.36
NEWCASTLE      FAIR      81  34  18 W6        30.32

$$
WYZ014>020-022>026-101>103-272100-
CENTRAL WYOMING

CITY           SKY/WX    TMP DP  RH WIND       PRES   REMARKS
BIG PINEY      SUNNY     81  24  12 W8        30.44F
PINEDALE       CLEAR     79  28  15 NW7       30.45F
DUBOIS         FAIR      79  27  14 SE8       30.44F
LANDER         SUNNY     82  33  17 CALM      30.34F
RIVERTON       SUNNY     81  32  17 MISG      30.36F
CASPER         SUNNY     82  44  26 E10       30.35F
DOUGLAS        SUNNY     81  49  32 VRB7G16   30.36F

$$
WYZ021-027>030-104>119-272100-
SOUTHERN WYOMING

CITY           SKY/WX    TMP DP  RH WIND       PRES   REMARKS
EVANSTON       PTSUNNY   83  26  12 VRB7G16   30.42F
KEMMERER       PTCLDY   N/A N/A N/A NE5       30.44F
ROCK SPRINGS   SUNNY     84  32  15 VRB6      30.41F
DIXON          FAIR      84  27  12 SW6       30.40F
RAWLINS        MOSUNNY   83  33  16 VRB5      30.41F
SARATOGA       FAIR      82  28  14 N10       30.43S
LARAMIE        SUNNY     76  52  43 S13G23    30.44F
CHEYENNE       PTSUNNY   76  56  49 SE13      30.42S
TORRINGTON     MOSUNNY   82  51  34 VRB5      30.32F
PINE BLUFFS    MOCLDY    79  48  34 SE9       30.37F

$$


USA.gov is the U.S. government's official web portal to all federal, state and local government web resources and services.